Dodge City Regional Airport
KDDC : now visible

Aeroporto :











RITROVATECI SU...

 
LOGIN :

Iscrizione | Disclaimer

   EN    FR    IT 

 









Sommario :    VFR   VFR Marginale   IFR   IFR Intensivo   IFR Molto Intensivo
Visibilità : 
Base nubi : 
>= 8 km
>= 3000ft
5 / 8 km
1000 / 3000 ft
1500m / 5 km
500 / 1000 ft
800 / 1500m
200 / 500 ft
< 800m
< 200 ft
Simboli :   Temporali  Nebbia  Neve Forte  Precipitazioni Forti  Vento > 20 kt






- Altitudine del aeroporto : 2594 ft
- Codice IATA : DDC


KDDC - Dodge City Regional

ULTIMO METAR :
  • 101352Z AUTO 16012KT 10SM CLR 24/21 A2997 RMK AO2 SLP115 T02440206

METARs OBSOLETI :
  • 101252Z AUTO 13006KT 10SM CLR 21/19 A2996 RMK AO2 SLP111 T02110194
  • 101152Z AUTO 13007KT 10SM CLR 21/19 A2996 RMK AO2 SLP108 60000 T02060189 10239 20200 53001

TAF KDDC
Valido dal 10 a 13 ore il 11 a 12 ore UTC


101235Z 1013/1112 15010KT P6SM SCT250
FM102000 VRB15G30KT P6SM VCTS BKN250CB
FM110000 04015G26KT P6SM BKN250
FIR KZKC / America del Nord



MetMap, La meteo Aeronautica in un colpo d'occhio ! - Copyright ORBIFLY Dicembre 2007 - Disclaimer

ORBIFLY MET'MAP TEAM :

Programmazione e sviluppo : Alexandra Zaïnal
Concezione : Baudouin d'Aumeries
Aiuto per la programmazione : Marc-Olivier Méhu
Supporto tecnico e logistico : Manuel Goepfert
Aiuto per la traduzione : Arnaldo La Scala

Contatto : metmap@orbifly.com




FONTI E CREDITI :

   NOAA       Earth
Advisory